Flag for Canada Weather past 2 weeks in Cambridge, Ontario, Canada

43 °F

Low clouds.

Feels Like: 36 °F
Forecast: N/A
Wind: 14 mph from Northwest

Location: Waterloo Well

Current Time: Nov 27, 2015 at 4:33:07 PM

Latest Report: Nov 27, 2015 at 4:00 PM

Visibility: 9 mi

Pressure: 30.21 "Hg

Humidity: 93%

Dew point: 41 °F

Location of CambridgeLocation

Historic Weather in Cambridge — Graph


Cambridge temperature yesterday

Maximum temperature yesterday: 57 °F (at 10:00 PM)
Minimum temperature yesterday: 41 °F (at 12:00 AM)
Average temperature yesterday: 49 °F

Past Weeks' High & Low Weather Summary

High59 °F (Nov 16, 2:00 PM)100% (Nov 15, 9:00 PM)30.58 "Hg (Nov 15, 9:00 PM)
Low7 °F (Nov 23, 5:00 AM)45% (Nov 20, 12:00 PM)29.35 "Hg (Nov 12, 4:01 PM)
Average40 °F81%30.11 "Hg
* Reported Nov 12 3:00 PM — Nov 27 3:00 PM, Cambridge, Weather by CustomWeather, © 2015

Note: Actual official high and low records may vary slightly from our data, if they occured in-between our weather recording intervals... More about our weather records


Cambridge weather history for previous 24 hours

Time TempWeatherWind HumidityBarometerVisibility
3:00 PM
Fri, Nov 27
46 °FLight rain. More clouds than sun.9 mph93%30.19 "Hg9 mi
2:00 PM52 °FLight rain. Overcast.17 mph94%30.17 "Hg9 mi
1:46 PM54 °FLight rain. Overcast.13 mph94%30.17 "Hg9 mi
1:00 PM52 °FLight rain. Fog.15 mph100%30.17 "Hg6 mi
12:00 PM52 °FLight rain. Overcast.18 mph94%30.18 "Hg9 mi
11:04 AM52 °FLight rain. Fog.18 mph94%30.20 "Hg5 mi
10:45 AM50 °FLight rain. Fog.16 mph100%30.21 "Hg6 mi
10:04 AM50 °FLight rain. Fog.14 mph100%30.20 "Hg6 mi
10:00 AM50 °FLight rain. Cloudy.17 mph94%30.20 "Hg7 mi
9:00 AM52 °FLight rain. More clouds than sun.16 mph88%30.21 "Hg9 mi
8:03 AM55 °FLight rain. Overcast.15 mph67%30.22 "Hg9 mi
7:00 AM55 °FOvercast.16 mph63%30.21 "Hg9 mi
6:00 AM55 °FMostly cloudy.16 mph63%30.22 "Hg9 mi
5:00 AM57 °FOvercast.18 mph59%30.23 "Hg9 mi
4:00 AM57 °FMostly cloudy.16 mph59%30.25 "Hg9 mi
3:00 AM57 °FOvercast.17 mph55%30.26 "Hg9 mi
2:00 AM57 °FMostly cloudy.16 mph55%30.27 "Hg9 mi
1:00 AM57 °FOvercast.22 mph55%30.28 "Hg9 mi
12:00 AM57 °FOvercast.20 mph59%30.29 "Hg9 mi
11:00 PM
Thu, Nov 26
57 °FPartly cloudy.22 mph59%30.29 "Hg9 mi
10:00 PM57 °FPassing clouds.20 mph63%30.31 "Hg9 mi
9:00 PM55 °FMostly cloudy.15 mph67%30.33 "Hg9 mi
8:00 PM54 °FPassing clouds.15 mph72%30.34 "Hg9 mi
7:00 PM55 °FOvercast.13 mph63%30.36 "Hg9 mi
6:00 PM54 °FPassing clouds.14 mph67%30.36 "Hg9 mi
5:00 PM54 °FMostly cloudy.14 mph67%30.37 "Hg9 mi
4:00 PM54 °FBroken clouds.17 mph67%30.38 "Hg9 mi
Weather by CustomWeather, © 2015

See weather overviewHow to use our weather pages